Year,Month,Day,Hour,Minute,Value (Times are PST for temperature in C)
2016,07,05,00,00,15.20
2016,07,05,00,01,15.10
2016,07,05,00,02,15.10
2016,07,05,00,03,15.10
2016,07,05,00,04,15.10
2016,07,05,00,05,15.10
2016,07,05,00,06,15.10
2016,07,05,00,07,15.10
2016,07,05,00,08,15.10
2016,07,05,00,09,15.10
2016,07,05,00,10,15.10
2016,07,05,00,11,15.00
2016,07,05,00,12,15.00
2016,07,05,00,13,15.00
2016,07,05,00,14,15.00
2016,07,05,00,15,15.00
2016,07,05,00,16,15.00
2016,07,05,00,17,15.00
2016,07,05,00,18,15.00
2016,07,05,00,19,15.00
2016,07,05,00,20,14.90
2016,07,05,00,21,14.90
2016,07,05,00,22,14.90
2016,07,05,00,23,14.90
2016,07,05,00,24,14.90
2016,07,05,00,25,14.90
2016,07,05,00,26,14.90
2016,07,05,00,27,14.90
2016,07,05,00,28,14.90
2016,07,05,00,29,14.80
2016,07,05,00,30,14.80
2016,07,05,00,31,14.80
2016,07,05,00,32,14.80
2016,07,05,00,33,14.80
2016,07,05,00,34,14.80
2016,07,05,00,35,14.80
2016,07,05,00,36,14.80
2016,07,05,00,37,14.80
2016,07,05,00,38,14.70
2016,07,05,00,39,14.70
2016,07,05,00,40,14.70
2016,07,05,00,41,14.70
2016,07,05,00,42,14.70
2016,07,05,00,43,14.70
2016,07,05,00,44,14.70
2016,07,05,00,45,14.70
2016,07,05,00,46,14.70
2016,07,05,00,47,14.60
2016,07,05,00,48,14.60
2016,07,05,00,49,14.60
2016,07,05,00,50,14.60
2016,07,05,00,51,14.50
2016,07,05,00,52,14.50
2016,07,05,00,53,14.50
2016,07,05,00,54,14.40
2016,07,05,00,55,14.40
2016,07,05,00,56,14.40
2016,07,05,00,57,14.40
2016,07,05,00,58,14.40
2016,07,05,00,59,14.40
2016,07,05,01,00,14.40
2016,07,05,01,01,14.40
2016,07,05,01,02,14.40
2016,07,05,01,03,14.40
2016,07,05,01,04,14.30
2016,07,05,01,05,14.30
2016,07,05,01,06,14.30
2016,07,05,01,07,14.30
2016,07,05,01,08,14.30
2016,07,05,01,09,14.30
2016,07,05,01,10,14.30
2016,07,05,01,11,14.30
2016,07,05,01,12,14.20
2016,07,05,01,13,14.20
2016,07,05,01,14,14.20
2016,07,05,01,15,14.20
2016,07,05,01,16,14.20
2016,07,05,01,17,14.10
2016,07,05,01,18,14.10
2016,07,05,01,19,14.10
2016,07,05,01,20,14.10
2016,07,05,01,21,14.00
2016,07,05,01,22,13.90
2016,07,05,01,23,13.90
2016,07,05,01,24,13.90
2016,07,05,01,25,13.90
2016,07,05,01,26,13.80
2016,07,05,01,27,13.80
2016,07,05,01,28,13.80
2016,07,05,01,29,13.80
2016,07,05,01,30,13.70
2016,07,05,01,31,13.70
2016,07,05,01,32,13.70
2016,07,05,01,33,13.70
2016,07,05,01,34,13.60
2016,07,05,01,35,13.60
2016,07,05,01,36,13.60
2016,07,05,01,37,13.50
2016,07,05,01,38,13.50
2016,07,05,01,39,13.50
2016,07,05,01,40,13.50
2016,07,05,01,41,13.40
2016,07,05,01,42,13.40
2016,07,05,01,43,13.40
2016,07,05,01,44,13.40
2016,07,05,01,45,13.40
2016,07,05,01,46,13.40
2016,07,05,01,47,13.40
2016,07,05,01,48,13.30
2016,07,05,01,49,13.30
2016,07,05,01,50,13.30
2016,07,05,01,51,13.30
2016,07,05,01,52,13.30
2016,07,05,01,53,13.30
2016,07,05,01,54,13.30
2016,07,05,01,55,13.20
2016,07,05,01,56,13.20
2016,07,05,01,57,13.20
2016,07,05,01,58,13.20
2016,07,05,01,59,13.20
2016,07,05,02,00,13.20
2016,07,05,02,01,13.20
2016,07,05,02,02,13.20
2016,07,05,02,03,13.20
2016,07,05,02,04,13.20
2016,07,05,02,05,13.20
2016,07,05,02,06,13.20
2016,07,05,02,07,13.20
2016,07,05,02,08,13.20
2016,07,05,02,09,13.10
2016,07,05,02,10,13.10
2016,07,05,02,11,13.10
2016,07,05,02,12,13.00
2016,07,05,02,13,13.00
2016,07,05,02,14,13.00
2016,07,05,02,15,12.90
2016,07,05,02,16,12.90
2016,07,05,02,17,12.80
2016,07,05,02,18,12.80
2016,07,05,02,19,12.80
2016,07,05,02,20,12.70
2016,07,05,02,21,12.70
2016,07,05,02,22,12.70
2016,07,05,02,23,12.70
2016,07,05,02,24,12.70
2016,07,05,02,25,12.60
2016,07,05,02,26,12.60
2016,07,05,02,27,12.60
2016,07,05,02,28,12.60
2016,07,05,02,29,12.60
2016,07,05,02,30,12.60
2016,07,05,02,31,12.60
2016,07,05,02,32,12.60
2016,07,05,02,33,12.50
2016,07,05,02,34,12.50
2016,07,05,02,35,12.50
2016,07,05,02,36,12.50
2016,07,05,02,37,12.40
2016,07,05,02,38,12.40
2016,07,05,02,39,12.40
2016,07,05,02,40,12.40
2016,07,05,02,41,12.40
2016,07,05,02,42,12.40
2016,07,05,02,43,12.40
2016,07,05,02,44,12.40
2016,07,05,02,45,12.40
2016,07,05,02,46,12.30
2016,07,05,02,47,12.30
2016,07,05,02,48,12.30
2016,07,05,02,49,12.30
2016,07,05,02,50,12.30
2016,07,05,02,51,12.20
2016,07,05,02,52,12.20
2016,07,05,02,53,12.20
2016,07,05,02,54,12.20
2016,07,05,02,55,12.20
2016,07,05,02,56,12.10
2016,07,05,02,57,12.10
2016,07,05,02,58,12.10
2016,07,05,02,59,12.10
2016,07,05,03,00,12.10
2016,07,05,03,01,12.10
2016,07,05,03,02,12.10
2016,07,05,03,03,12.10
2016,07,05,03,04,12.10
2016,07,05,03,05,12.10
2016,07,05,03,06,12.10
2016,07,05,03,07,12.00
2016,07,05,03,08,12.00
2016,07,05,03,09,12.00
2016,07,05,03,10,12.00
2016,07,05,03,11,12.00
2016,07,05,03,12,11.90
2016,07,05,03,13,11.90
2016,07,05,03,14,11.90
2016,07,05,03,15,11.90
2016,07,05,03,16,11.90
2016,07,05,03,17,11.90
2016,07,05,03,18,11.90
2016,07,05,03,19,11.90
2016,07,05,03,20,11.90
2016,07,05,03,21,11.90
2016,07,05,03,22,11.90
2016,07,05,03,23,11.90
2016,07,05,03,24,11.80
2016,07,05,03,25,11.80
2016,07,05,03,26,11.80
2016,07,05,03,27,11.80
2016,07,05,03,28,11.80
2016,07,05,03,29,11.80
2016,07,05,03,30,11.80
2016,07,05,03,31,11.80
2016,07,05,03,32,11.80
2016,07,05,03,33,11.80
2016,07,05,03,34,11.80
2016,07,05,03,35,11.80
2016,07,05,03,36,11.80
2016,07,05,03,37,11.80
2016,07,05,03,38,11.80
2016,07,05,03,39,11.80
2016,07,05,03,40,11.80
2016,07,05,03,41,11.80
2016,07,05,03,42,11.80
2016,07,05,03,43,11.80
2016,07,05,03,44,11.80
2016,07,05,03,45,11.80
2016,07,05,03,46,11.80
2016,07,05,03,47,11.70
2016,07,05,03,48,11.80
2016,07,05,03,49,11.70
2016,07,05,03,50,11.70
2016,07,05,03,51,11.70
2016,07,05,03,52,11.70
2016,07,05,03,53,11.70
2016,07,05,03,54,11.70
2016,07,05,03,55,11.60
2016,07,05,03,56,11.60
2016,07,05,03,57,11.60
2016,07,05,03,58,11.50
2016,07,05,03,59,11.50
2016,07,05,04,00,11.50
2016,07,05,04,01,11.40
2016,07,05,04,02,11.40
2016,07,05,04,03,11.40
2016,07,05,04,04,11.40
2016,07,05,04,05,11.40
2016,07,05,04,06,11.40
2016,07,05,04,07,11.40
2016,07,05,04,08,11.40
2016,07,05,04,09,11.30
2016,07,05,04,10,11.30
2016,07,05,04,11,11.30
2016,07,05,04,12,11.30
2016,07,05,04,13,11.40
2016,07,05,04,14,11.30
2016,07,05,04,15,11.40
2016,07,05,04,16,11.40
2016,07,05,04,17,11.40
2016,07,05,04,18,11.40
2016,07,05,04,19,11.40
2016,07,05,04,20,11.40
2016,07,05,04,21,11.40
2016,07,05,04,22,11.40
2016,07,05,04,23,11.40
2016,07,05,04,24,11.40
2016,07,05,04,25,11.40
2016,07,05,04,26,11.40
2016,07,05,04,27,11.40
2016,07,05,04,28,11.50
2016,07,05,04,29,11.50
2016,07,05,04,30,11.50
2016,07,05,04,31,11.50
2016,07,05,04,32,11.50
2016,07,05,04,33,11.50
2016,07,05,04,34,11.50
2016,07,05,04,35,11.60
2016,07,05,04,36,11.60
2016,07,05,04,37,11.60
2016,07,05,04,38,11.60
2016,07,05,04,39,11.60
2016,07,05,04,40,11.60
2016,07,05,04,41,11.60
2016,07,05,04,42,11.60
2016,07,05,04,43,11.60
2016,07,05,04,44,11.60
2016,07,05,04,45,11.70
2016,07,05,04,46,11.70
2016,07,05,04,47,11.70
2016,07,05,04,48,11.70
2016,07,05,04,49,11.80
2016,07,05,04,50,11.80
2016,07,05,04,51,11.90
2016,07,05,04,52,12.00
2016,07,05,04,53,12.10
2016,07,05,04,54,12.20
2016,07,05,04,55,12.30
2016,07,05,04,56,12.40
2016,07,05,04,57,12.50
2016,07,05,04,58,12.60
2016,07,05,04,59,12.70
2016,07,05,05,00,12.70
2016,07,05,05,01,12.80
2016,07,05,05,02,12.80
2016,07,05,05,03,12.90
2016,07,05,05,04,13.00
2016,07,05,05,05,13.00
2016,07,05,05,06,13.10
2016,07,05,05,07,13.20
2016,07,05,05,08,13.20
2016,07,05,05,09,13.20
2016,07,05,05,10,13.20
2016,07,05,05,11,13.30
2016,07,05,05,12,13.30
2016,07,05,05,13,13.40
2016,07,05,05,14,13.40
2016,07,05,05,15,13.40
2016,07,05,05,16,13.40
2016,07,05,05,17,13.40
2016,07,05,05,18,13.50
2016,07,05,05,19,13.50
2016,07,05,05,20,13.50
2016,07,05,05,21,13.60
2016,07,05,05,22,13.60
2016,07,05,05,23,13.60
2016,07,05,05,24,13.60
2016,07,05,05,25,13.60
2016,07,05,05,26,13.70
2016,07,05,05,27,13.70
2016,07,05,05,28,13.70
2016,07,05,05,29,13.70
2016,07,05,05,30,13.70
2016,07,05,05,31,13.70
2016,07,05,05,32,13.80
2016,07,05,05,33,13.80
2016,07,05,05,34,13.80
2016,07,05,05,35,13.80
2016,07,05,05,36,13.80
2016,07,05,05,37,13.80
2016,07,05,05,38,13.80
2016,07,05,05,39,13.80
2016,07,05,05,40,13.80
2016,07,05,05,41,13.80
2016,07,05,05,42,13.80
2016,07,05,05,43,13.80
2016,07,05,05,44,13.90
2016,07,05,05,45,13.90
2016,07,05,05,46,13.90
2016,07,05,05,47,13.90
2016,07,05,05,48,13.90
2016,07,05,05,49,13.90
2016,07,05,05,50,13.90
2016,07,05,05,51,13.90
2016,07,05,05,52,13.90
2016,07,05,05,53,13.90
2016,07,05,05,54,13.90
2016,07,05,05,55,13.90
2016,07,05,05,56,13.90
2016,07,05,05,57,13.90
2016,07,05,05,58,13.90
2016,07,05,05,59,13.90
2016,07,05,06,00,13.90
2016,07,05,06,01,13.90
2016,07,05,06,02,14.00
2016,07,05,06,03,14.00
2016,07,05,06,04,14.00
2016,07,05,06,05,14.00
2016,07,05,06,06,14.00
2016,07,05,06,07,14.00
2016,07,05,06,08,14.10
2016,07,05,06,09,14.10
2016,07,05,06,10,14.10
2016,07,05,06,11,14.10
2016,07,05,06,12,14.10
2016,07,05,06,13,14.10
2016,07,05,06,14,14.10
2016,07,05,06,15,14.10
2016,07,05,06,16,14.10
2016,07,05,06,17,14.10
2016,07,05,06,18,14.10
2016,07,05,06,19,14.10
2016,07,05,06,20,14.10
2016,07,05,06,21,14.10
2016,07,05,06,22,14.10
2016,07,05,06,23,14.10
2016,07,05,06,24,14.10
2016,07,05,06,25,14.10
2016,07,05,06,26,14.20
2016,07,05,06,27,14.20
2016,07,05,06,28,14.20
2016,07,05,06,29,14.20
2016,07,05,06,30,14.20
2016,07,05,06,31,14.20
2016,07,05,06,32,14.20
2016,07,05,06,33,14.20
2016,07,05,06,34,14.20
2016,07,05,06,35,14.20
2016,07,05,06,36,14.20
2016,07,05,06,37,14.20
2016,07,05,06,38,14.30
2016,07,05,06,39,14.30
2016,07,05,06,40,14.30
2016,07,05,06,41,14.30
2016,07,05,06,42,14.30
2016,07,05,06,43,14.30
2016,07,05,06,44,14.30
2016,07,05,06,45,14.30
2016,07,05,06,46,14.30
2016,07,05,06,47,14.30
2016,07,05,06,48,14.30
2016,07,05,06,49,14.30
2016,07,05,06,50,14.30
2016,07,05,06,51,14.30
2016,07,05,06,52,14.30
2016,07,05,06,53,14.30
2016,07,05,06,54,14.30
2016,07,05,06,55,14.40
2016,07,05,06,56,14.40
2016,07,05,06,57,14.40
2016,07,05,06,58,14.40
2016,07,05,06,59,14.40
2016,07,05,07,00,14.40
2016,07,05,07,01,14.40
2016,07,05,07,02,14.40
2016,07,05,07,03,14.40
2016,07,05,07,04,14.50
2016,07,05,07,05,14.50
2016,07,05,07,06,14.50
2016,07,05,07,07,14.50
2016,07,05,07,08,14.60
2016,07,05,07,09,14.60
2016,07,05,07,10,14.60
2016,07,05,07,11,14.60
2016,07,05,07,12,14.70
2016,07,05,07,13,14.70
2016,07,05,07,14,14.70
2016,07,05,07,15,14.70
2016,07,05,07,16,14.80
2016,07,05,07,17,14.80
2016,07,05,07,18,14.80
2016,07,05,07,19,14.80
2016,07,05,07,20,14.90
2016,07,05,07,21,14.90
2016,07,05,07,22,14.90
2016,07,05,07,23,14.90
2016,07,05,07,24,14.90
2016,07,05,07,25,14.90
2016,07,05,07,26,14.90
2016,07,05,07,27,14.90
2016,07,05,07,28,15.00
2016,07,05,07,29,15.00
2016,07,05,07,30,15.10
2016,07,05,07,31,15.10
2016,07,05,07,32,15.20
2016,07,05,07,33,15.20
2016,07,05,07,34,15.30
2016,07,05,07,35,15.30
2016,07,05,07,36,15.30
2016,07,05,07,37,15.30
2016,07,05,07,38,15.40
2016,07,05,07,39,15.40
2016,07,05,07,40,15.40
2016,07,05,07,41,15.40
2016,07,05,07,42,15.50
2016,07,05,07,43,15.50
2016,07,05,07,44,15.60
2016,07,05,07,45,15.60
2016,07,05,07,46,15.70
2016,07,05,07,47,15.70
2016,07,05,07,48,15.70
2016,07,05,07,49,15.70
2016,07,05,07,50,15.70
2016,07,05,07,51,15.70
2016,07,05,07,52,15.80
2016,07,05,07,53,15.80
2016,07,05,07,54,15.80
2016,07,05,07,55,15.90
2016,07,05,07,56,15.90
2016,07,05,07,57,16.00
2016,07,05,07,58,16.00
2016,07,05,07,59,16.10
2016,07,05,08,00,16.20
2016,07,05,08,01,16.20
2016,07,05,08,02,16.20
2016,07,05,08,03,16.20
2016,07,05,08,04,16.30
2016,07,05,08,05,16.30
2016,07,05,08,06,16.40
2016,07,05,08,07,16.40
2016,07,05,08,08,16.40
2016,07,05,08,09,16.50
2016,07,05,08,10,16.50
2016,07,05,08,11,16.50
2016,07,05,08,12,16.50
2016,07,05,08,13,16.50
2016,07,05,08,14,16.60
2016,07,05,08,15,16.60
2016,07,05,08,16,16.60
2016,07,05,08,17,16.60
2016,07,05,08,18,16.70
2016,07,05,08,19,16.70
2016,07,05,08,20,16.70
2016,07,05,08,21,16.70
2016,07,05,08,22,16.70
2016,07,05,08,23,16.80
2016,07,05,08,24,16.80
2016,07,05,08,25,16.90
2016,07,05,08,26,16.90
2016,07,05,08,27,16.90
2016,07,05,08,28,16.90
2016,07,05,08,29,16.90
2016,07,05,08,30,16.90
2016,07,05,08,31,16.90
2016,07,05,08,32,16.90
2016,07,05,08,33,17.00
2016,07,05,08,34,17.00
2016,07,05,08,35,16.90
2016,07,05,08,36,16.90
2016,07,05,08,37,16.90
2016,07,05,08,38,17.00
2016,07,05,08,39,17.00
2016,07,05,08,40,17.00
2016,07,05,08,41,16.90
2016,07,05,08,42,16.80
2016,07,05,08,43,16.70
2016,07,05,08,44,16.70
2016,07,05,08,45,16.60
2016,07,05,08,46,16.60
2016,07,05,08,47,16.60
2016,07,05,08,48,16.60
2016,07,05,08,49,16.60
2016,07,05,08,50,16.60
2016,07,05,08,51,16.70
2016,07,05,08,52,16.70
2016,07,05,08,53,16.70
2016,07,05,08,54,16.70
2016,07,05,08,55,16.80
2016,07,05,08,56,16.80
2016,07,05,08,57,16.80
2016,07,05,08,58,16.80
2016,07,05,08,59,16.70
2016,07,05,09,00,16.70
2016,07,05,09,01,16.60
2016,07,05,09,02,16.50
2016,07,05,09,03,16.40
2016,07,05,09,04,16.40
2016,07,05,09,05,16.30
2016,07,05,09,06,16.30
2016,07,05,09,07,16.30
2016,07,05,09,08,16.20
2016,07,05,09,09,16.20
2016,07,05,09,10,16.20
2016,07,05,09,11,16.20
2016,07,05,09,12,16.30
2016,07,05,09,13,16.30
2016,07,05,09,14,16.40
2016,07,05,09,15,16.40
2016,07,05,09,16,16.40
2016,07,05,09,17,16.50
2016,07,05,09,18,16.50
2016,07,05,09,19,16.40
2016,07,05,09,20,16.40
2016,07,05,09,21,16.40
2016,07,05,09,22,16.40
2016,07,05,09,23,16.40
2016,07,05,09,24,16.50
2016,07,05,09,25,16.60
2016,07,05,09,26,16.60
2016,07,05,09,27,16.60
2016,07,05,09,28,16.60
2016,07,05,09,29,16.70
2016,07,05,09,30,16.70
2016,07,05,09,31,16.80
2016,07,05,09,32,16.80
2016,07,05,09,33,16.80
2016,07,05,09,34,16.90
2016,07,05,09,35,16.90
2016,07,05,09,36,17.00
2016,07,05,09,37,17.00
2016,07,05,09,38,17.00
2016,07,05,09,39,16.90
2016,07,05,09,40,16.80
2016,07,05,09,41,16.80
2016,07,05,09,42,16.80
2016,07,05,09,43,16.80
2016,07,05,09,44,16.90
2016,07,05,09,45,16.80
2016,07,05,09,46,16.80
2016,07,05,09,47,16.80
2016,07,05,09,48,16.90
2016,07,05,09,49,17.00
2016,07,05,09,50,17.10
2016,07,05,09,51,17.20
2016,07,05,09,52,17.20
2016,07,05,09,53,17.20
2016,07,05,09,54,17.30
2016,07,05,09,55,17.30
2016,07,05,09,56,17.30
2016,07,05,09,57,17.40
2016,07,05,09,58,17.40
2016,07,05,09,59,17.30
2016,07,05,10,00,17.30
2016,07,05,10,01,17.30
2016,07,05,10,02,17.40
2016,07,05,10,03,17.50
2016,07,05,10,04,17.60
2016,07,05,10,05,17.60
2016,07,05,10,06,17.60
2016,07,05,10,07,17.50
2016,07,05,10,08,17.40
2016,07,05,10,09,17.30
2016,07,05,10,10,17.20
2016,07,05,10,11,17.10
2016,07,05,10,12,17.10
2016,07,05,10,13,17.10
2016,07,05,10,14,17.00
2016,07,05,10,15,17.00
2016,07,05,10,16,16.90
2016,07,05,10,17,16.90
2016,07,05,10,18,16.90
2016,07,05,10,19,16.80
2016,07,05,10,20,16.70
2016,07,05,10,21,16.70
2016,07,05,10,22,16.70
2016,07,05,10,23,16.60
2016,07,05,10,24,16.60
2016,07,05,10,25,16.70
2016,07,05,10,26,16.70
2016,07,05,10,27,16.70
2016,07,05,10,28,16.70
2016,07,05,10,29,16.70
2016,07,05,10,30,16.70
2016,07,05,10,31,16.70
2016,07,05,10,32,16.80
2016,07,05,10,33,16.80
2016,07,05,10,34,16.90
2016,07,05,10,35,17.00
2016,07,05,10,36,17.10
2016,07,05,10,37,17.10
2016,07,05,10,38,17.20
2016,07,05,10,39,17.20
2016,07,05,10,40,17.10
2016,07,05,10,41,17.10
2016,07,05,10,42,17.20
2016,07,05,10,43,17.20
2016,07,05,10,44,17.20
2016,07,05,10,45,17.30
2016,07,05,10,46,17.40
2016,07,05,10,47,17.40
2016,07,05,10,48,17.40
2016,07,05,10,49,17.40
2016,07,05,10,50,17.50
2016,07,05,10,51,17.60
2016,07,05,10,52,17.70
2016,07,05,10,53,17.80
2016,07,05,10,54,17.90
2016,07,05,10,55,18.00
2016,07,05,10,56,18.00
2016,07,05,10,57,18.10
2016,07,05,10,58,18.10
2016,07,05,10,59,18.20
2016,07,05,11,00,18.30
2016,07,05,11,01,18.30
2016,07,05,11,02,18.30
2016,07,05,11,03,18.20
2016,07,05,11,04,18.20
2016,07,05,11,05,18.30
2016,07,05,11,06,18.30
2016,07,05,11,07,18.30
2016,07,05,11,08,18.30
2016,07,05,11,09,18.30
2016,07,05,11,10,18.30
2016,07,05,11,11,18.30
2016,07,05,11,12,18.30
2016,07,05,11,13,18.30
2016,07,05,11,14,18.20
2016,07,05,11,15,18.20
2016,07,05,11,16,18.20
2016,07,05,11,17,18.20
2016,07,05,11,18,18.20
2016,07,05,11,19,18.30
2016,07,05,11,20,18.40
2016,07,05,11,21,18.40
2016,07,05,11,22,18.50
2016,07,05,11,23,18.60
2016,07,05,11,24,18.60
2016,07,05,11,25,18.70
2016,07,05,11,26,18.70
2016,07,05,11,27,18.60
2016,07,05,11,28,18.60
2016,07,05,11,29,18.50
2016,07,05,11,30,18.50
2016,07,05,11,31,18.50
2016,07,05,11,32,18.50
2016,07,05,11,33,18.40
2016,07,05,11,34,18.40
2016,07,05,11,35,18.30
2016,07,05,11,36,18.30
2016,07,05,11,37,18.30
2016,07,05,11,38,18.30
2016,07,05,11,39,18.30
2016,07,05,11,40,18.20
2016,07,05,11,41,18.20
2016,07,05,11,42,18.20
2016,07,05,11,43,18.20
2016,07,05,11,44,18.30
2016,07,05,11,45,18.40
2016,07,05,11,46,18.50
2016,07,05,11,47,18.60
2016,07,05,11,48,18.60
2016,07,05,11,49,18.60
2016,07,05,11,50,18.70
2016,07,05,11,51,18.70
2016,07,05,11,52,18.70
2016,07,05,11,53,18.70
2016,07,05,11,54,18.70
2016,07,05,11,55,18.70
2016,07,05,11,56,18.60
2016,07,05,11,57,18.60
2016,07,05,11,58,18.50
2016,07,05,11,59,18.40
2016,07,05,12,00,18.40
2016,07,05,12,01,18.40
2016,07,05,12,02,18.40
2016,07,05,12,03,18.40
2016,07,05,12,04,18.40
2016,07,05,12,05,18.40
2016,07,05,12,06,18.50
2016,07,05,12,07,18.50
2016,07,05,12,08,18.50
2016,07,05,12,09,18.40
2016,07,05,12,10,18.30
2016,07,05,12,11,18.30
2016,07,05,12,12,18.20
2016,07,05,12,13,18.10
2016,07,05,12,14,18.00
2016,07,05,12,15,17.90
2016,07,05,12,16,17.80
2016,07,05,12,17,17.80
2016,07,05,12,18,17.80
2016,07,05,12,19,17.80
2016,07,05,12,20,17.80
2016,07,05,12,21,17.80
2016,07,05,12,22,17.80
2016,07,05,12,23,17.70
2016,07,05,12,24,17.70
2016,07,05,12,25,17.70
2016,07,05,12,26,17.60
2016,07,05,12,27,17.60
2016,07,05,12,28,17.60
2016,07,05,12,29,17.50
2016,07,05,12,30,17.50
2016,07,05,12,31,17.50
2016,07,05,12,32,17.50
2016,07,05,12,33,17.40
2016,07,05,12,34,17.40
2016,07,05,12,35,17.30
2016,07,05,12,36,17.30
2016,07,05,12,37,17.20
2016,07,05,12,38,17.10
2016,07,05,12,39,17.10
2016,07,05,12,40,17.00
2016,07,05,12,41,16.90
2016,07,05,12,42,16.80
2016,07,05,12,43,16.80
2016,07,05,12,44,16.70
2016,07,05,12,45,16.60
2016,07,05,12,46,16.50
2016,07,05,12,47,16.40
2016,07,05,12,48,16.30
2016,07,05,12,49,16.20
2016,07,05,12,50,16.20
2016,07,05,12,51,16.10
2016,07,05,12,52,16.00
2016,07,05,12,53,16.00
2016,07,05,12,54,15.90
2016,07,05,12,55,15.90
2016,07,05,12,56,15.90
2016,07,05,12,57,15.80
2016,07,05,12,58,15.80
2016,07,05,12,59,15.80
2016,07,05,13,00,15.80
2016,07,05,13,01,15.80
2016,07,05,13,02,15.80
2016,07,05,13,03,15.80
2016,07,05,13,04,15.80
2016,07,05,13,05,15.80
2016,07,05,13,06,15.80
2016,07,05,13,07,15.90
2016,07,05,13,08,15.80
2016,07,05,13,09,15.80
2016,07,05,13,10,15.90
2016,07,05,13,11,15.90
2016,07,05,13,12,15.90
2016,07,05,13,13,16.00
2016,07,05,13,14,16.00
2016,07,05,13,15,16.10
2016,07,05,13,16,16.10
2016,07,05,13,17,16.10
2016,07,05,13,18,16.10
2016,07,05,13,19,16.10
2016,07,05,13,20,16.20
2016,07,05,13,21,16.20
2016,07,05,13,22,16.30
2016,07,05,13,23,16.30
2016,07,05,13,24,16.30
2016,07,05,13,25,16.30
2016,07,05,13,26,16.40
2016,07,05,13,27,16.40
2016,07,05,13,28,16.40
2016,07,05,13,29,16.40
2016,07,05,13,30,16.40
2016,07,05,13,31,16.40
2016,07,05,13,32,16.40
2016,07,05,13,33,16.40
2016,07,05,13,34,16.40
2016,07,05,13,35,16.40
2016,07,05,13,36,16.40
2016,07,05,13,37,16.40
2016,07,05,13,38,16.40
2016,07,05,13,39,16.50
2016,07,05,13,40,16.60
2016,07,05,13,41,16.60
2016,07,05,13,42,16.60
2016,07,05,13,43,16.60
2016,07,05,13,44,16.60
2016,07,05,13,45,16.60
2016,07,05,13,46,16.60
2016,07,05,13,47,16.60
2016,07,05,13,48,16.60
2016,07,05,13,49,16.70
2016,07,05,13,50,16.70
2016,07,05,13,51,16.70
2016,07,05,13,52,16.70
2016,07,05,13,53,16.70
2016,07,05,13,54,16.70
2016,07,05,13,55,16.70
2016,07,05,13,56,16.70
2016,07,05,13,57,16.70
2016,07,05,13,58,16.60
2016,07,05,13,59,16.60
2016,07,05,14,00,16.50
2016,07,05,14,01,16.50
2016,07,05,14,02,16.40
2016,07,05,14,03,16.40
2016,07,05,14,04,16.40
2016,07,05,14,05,16.40
2016,07,05,14,06,16.30
2016,07,05,14,07,16.30
2016,07,05,14,08,16.20
2016,07,05,14,09,16.20
2016,07,05,14,10,16.20
2016,07,05,14,11,16.20
2016,07,05,14,12,16.20
2016,07,05,14,13,16.10
2016,07,05,14,14,16.10
2016,07,05,14,15,16.00
2016,07,05,14,16,16.00
2016,07,05,14,17,15.90
2016,07,05,14,18,15.90
2016,07,05,14,19,15.90
2016,07,05,14,20,16.00
2016,07,05,14,21,16.10
2016,07,05,14,22,16.10
2016,07,05,14,23,16.10
2016,07,05,14,24,16.10
2016,07,05,14,25,16.10
2016,07,05,14,26,16.10
2016,07,05,14,27,16.10
2016,07,05,14,28,16.10
2016,07,05,14,29,16.10
2016,07,05,14,30,16.10
2016,07,05,14,31,16.10
2016,07,05,14,32,16.20
2016,07,05,14,33,16.20
2016,07,05,14,34,16.20
2016,07,05,14,35,16.20
2016,07,05,14,36,16.30
2016,07,05,14,37,16.30
2016,07,05,14,38,16.30
2016,07,05,14,39,16.30
2016,07,05,14,40,16.30
2016,07,05,14,41,16.40
2016,07,05,14,42,16.40
2016,07,05,14,43,16.40
2016,07,05,14,44,16.50
2016,07,05,14,45,16.50
2016,07,05,14,46,16.50
2016,07,05,14,47,16.50
2016,07,05,14,48,16.50
2016,07,05,14,49,16.60
2016,07,05,14,50,16.60
2016,07,05,14,51,16.60
2016,07,05,14,52,16.70
2016,07,05,14,53,16.80
2016,07,05,14,54,16.80
2016,07,05,14,55,16.80
2016,07,05,14,56,16.80
2016,07,05,14,57,16.80
2016,07,05,14,58,16.80
2016,07,05,14,59,16.80
2016,07,05,15,00,16.80
2016,07,05,15,01,16.80
2016,07,05,15,02,16.80
2016,07,05,15,03,16.80
2016,07,05,15,04,16.90
2016,07,05,15,05,16.90
2016,07,05,15,06,16.80
2016,07,05,15,07,16.90
2016,07,05,15,08,16.90
2016,07,05,15,09,16.90
2016,07,05,15,10,16.90
2016,07,05,15,11,16.90
2016,07,05,15,12,17.00
2016,07,05,15,13,17.10
2016,07,05,15,14,17.10
2016,07,05,15,15,17.20
2016,07,05,15,16,17.20
2016,07,05,15,17,17.20
2016,07,05,15,18,17.30
2016,07,05,15,19,17.30
2016,07,05,15,20,17.30
2016,07,05,15,21,17.40
2016,07,05,15,22,17.30
2016,07,05,15,23,17.30
2016,07,05,15,24,17.40
2016,07,05,15,25,17.30
2016,07,05,15,26,17.40
2016,07,05,15,27,17.40
2016,07,05,15,28,17.40
2016,07,05,15,29,17.40
2016,07,05,15,30,17.40
2016,07,05,15,31,17.50
2016,07,05,15,32,17.50
2016,07,05,15,33,17.50
2016,07,05,15,34,17.50
2016,07,05,15,35,17.50
2016,07,05,15,36,17.50
2016,07,05,15,37,17.60
2016,07,05,15,38,17.50
2016,07,05,15,39,17.50
2016,07,05,15,40,17.40
2016,07,05,15,41,17.40
2016,07,05,15,42,17.30
2016,07,05,15,43,17.30
2016,07,05,15,44,17.30
2016,07,05,15,45,17.30
2016,07,05,15,46,17.40
2016,07,05,15,47,17.40
2016,07,05,15,48,17.40
2016,07,05,15,49,17.40
2016,07,05,15,50,17.40
2016,07,05,15,51,17.30
2016,07,05,15,52,17.30
2016,07,05,15,53,17.20
2016,07,05,15,54,17.20
2016,07,05,15,55,17.10
2016,07,05,15,56,17.00
2016,07,05,15,57,17.00
2016,07,05,15,58,17.00
2016,07,05,15,59,17.10
2016,07,05,16,00,17.10
2016,07,05,16,01,17.10
2016,07,05,16,02,17.00
2016,07,05,16,03,17.00
2016,07,05,16,04,17.00
2016,07,05,16,05,17.00
2016,07,05,16,06,17.00
2016,07,05,16,07,17.00
2016,07,05,16,08,17.00
2016,07,05,16,09,17.00
2016,07,05,16,10,17.00
2016,07,05,16,11,16.90
2016,07,05,16,12,16.90
2016,07,05,16,13,16.90
2016,07,05,16,14,16.90
2016,07,05,16,15,16.90
2016,07,05,16,16,16.80
2016,07,05,16,17,16.80
2016,07,05,16,18,16.80
2016,07,05,16,19,16.70
2016,07,05,16,20,16.70
2016,07,05,16,21,16.60
2016,07,05,16,22,16.50
2016,07,05,16,23,16.50
2016,07,05,16,24,16.40
2016,07,05,16,25,16.40
2016,07,05,16,26,16.30
2016,07,05,16,27,16.30
2016,07,05,16,28,16.30
2016,07,05,16,29,16.30
2016,07,05,16,30,16.20
2016,07,05,16,31,16.20
2016,07,05,16,32,16.20
2016,07,05,16,33,16.20
2016,07,05,16,34,16.20
2016,07,05,16,35,16.20
2016,07,05,16,36,16.10
2016,07,05,16,37,16.10
2016,07,05,16,38,16.10
2016,07,05,16,39,16.10
2016,07,05,16,40,16.10
2016,07,05,16,41,16.10
2016,07,05,16,42,16.10
2016,07,05,16,43,16.10
2016,07,05,16,44,16.00
2016,07,05,16,45,15.90
2016,07,05,16,46,15.90
2016,07,05,16,47,15.80
2016,07,05,16,48,15.80
2016,07,05,16,49,15.80
2016,07,05,16,50,15.70
2016,07,05,16,51,15.70
2016,07,05,16,52,15.70
2016,07,05,16,53,15.60
2016,07,05,16,54,15.70
2016,07,05,16,55,15.70
2016,07,05,16,56,15.70
2016,07,05,16,57,15.60
2016,07,05,16,58,15.70
2016,07,05,16,59,15.70
2016,07,05,17,00,15.70
2016,07,05,17,01,15.70
2016,07,05,17,02,15.70
2016,07,05,17,03,15.70
2016,07,05,17,04,15.60
2016,07,05,17,05,15.70
2016,07,05,17,06,15.70
2016,07,05,17,07,15.70
2016,07,05,17,08,15.70
2016,07,05,17,09,15.60
2016,07,05,17,10,15.60
2016,07,05,17,11,15.50
2016,07,05,17,12,15.60
2016,07,05,17,13,15.50
2016,07,05,17,14,15.50
2016,07,05,17,15,15.60
2016,07,05,17,16,15.60
2016,07,05,17,17,15.60
2016,07,05,17,18,15.60
2016,07,05,17,19,15.60